Location: ????????
(56.1167°N, 38.6333°E)
Time: 23:19:56
(UTC+00:00)

Cosmos 1346 Rocket - Visible Passes

Search period start: 15 February 2026 00:00
Search period end: 25 February 2026 00:00
Orbit: 476 x 487 km, 81.2° (Epoch: 15 February)

Date Brightness Start Highest point End Pass type
(mag) Time Alt. Az. Time Alt. Az. Time Alt. Az.
15 Feb 3.2 02:45:32 10° N 02:49:10 56° ENE 02:52:47 10° SSE visible
15 Feb 2.4 16:37:08 10° S 16:40:44 72° ESE 16:43:36 16° NNE visible
15 Feb 5.5 18:14:04 10° W 18:16:22 16° WNW 18:18:11 12° NNW visible
16 Feb 4.0 02:19:58 10° N 02:23:27 38° ENE 02:26:55 10° SE visible
16 Feb 3.7 03:55:27 10° NW 03:58:28 24° W 04:01:28 10° SSW visible
16 Feb 2.7 16:11:38 10° S 16:15:08 47° E 16:18:40 10° NNE visible
16 Feb 5.1 17:47:41 10° WSW 17:50:32 21° WNW 17:53:25 10° N visible
17 Feb 4.7 01:54:29 10° N 01:57:42 27° ENE 02:00:54 10° SE visible
17 Feb 3.2 03:29:33 10° NNW 03:32:56 35° W 03:36:17 10° SSW visible
17 Feb 3.2 15:46:18 10° SSE 15:49:34 32° E 15:52:51 10° NNE visible
17 Feb 4.6 17:21:32 10° SW 17:24:45 29° WNW 17:27:59 10° N visible
18 Feb 5.2 01:29:04 10° N 01:31:54 20° ENE 01:34:42 10° ESE visible
18 Feb 2.7 03:03:45 10° NNW 03:07:20 51° W 03:10:55 10° S visible
18 Feb 3.7 15:21:08 10° SE 15:24:01 22° E 15:26:55 10° NE visible
18 Feb 3.9 16:55:31 10° SW 16:58:59 41° WNW 17:02:29 10° N visible
19 Feb 5.6 01:03:48 10° NNE 01:06:02 15° ENE 01:08:16 10° E visible
19 Feb 2.4 02:38:01 10° NNW 02:41:43 77° WSW 02:45:23 10° S visible
19 Feb 3.1 16:29:38 10° SSW 16:33:14 61° WNW 16:36:53 10° N visible
20 Feb 6.0 00:38:53 10° NNE 00:40:08 11° NE 00:41:23 10° ENE visible
20 Feb 2.8 02:12:21 10° N 02:16:02 71° ENE 02:19:42 10° SSE visible
20 Feb 4.3 03:48:42 10° NW 03:50:41 14° W 03:52:41 10° WSW visible
20 Feb 2.5 16:03:54 10° SSW 16:07:32 90° SE 16:11:13 10° NNE visible
20 Feb 5.8 17:41:26 10° W 17:43:18 13° NW 17:45:11 10° NNW visible
21 Feb 3.5 01:46:42 10° N 01:50:18 48° ENE 01:53:53 10° SE visible
21 Feb 3.9 03:22:26 10° NW 03:25:11 20° W 03:27:54 10° SW visible
21 Feb 2.6 15:38:17 10° S 15:41:52 60° E 15:45:29 10° NNE visible
21 Feb 5.5 17:14:50 10° WSW 17:17:24 18° WNW 17:20:00 10° NNW visible
22 Feb 4.3 01:21:08 10° N 01:24:31 33° ENE 01:27:53 10° SE visible
22 Feb 3.4 02:56:25 10° NNW 02:59:37 28° W 03:02:48 10° SSW visible
22 Feb 5.0 16:48:30 10° WSW 16:51:32 24° WNW 16:54:35 10° N visible
23 Feb 5.3 00:55:37 10° N 01:00:57 14° ESE 01:01:45 10° ESE visible
23 Feb 3.8 02:30:31 10° NNW 02:35:33 26° SSW 02:37:29 10° SSW visible
23 Feb 4.4 16:22:21 10° SW 16:25:42 33° WNW 16:29:04 10° N visible
24 Feb5.402:13:36S02:13:36S02:04:25NNWvisible
24 Feb 3.6 15:56:21 10° SSW 15:59:53 48° WNW 16:03:28 10° N visible
